This is the latest recevied weather packets stored in our database for station/object KD9JJA. If no packets are shown the sender has not sent any weather packets the latest 10 day(s).
| Time | Temp. | Humidity | Pressure | Rain* | Wind** | Luminosity | Snow |
|---|---|---|---|---|---|---|---|
| 1776953680 | 20.56° C | 68% | 1018 hPa | 0 mm | - | 330 W/m² | - |
| 1776953379 | 20.56° C | 69% | 1018 hPa | 0 mm | - | 170 W/m² | - |
| 1776953078 | 20.56° C | 71% | 1018.1 hPa | 0 mm | - | 127 W/m² | - |
| 1776952774 | 20.56° C | 72% | 1018 hPa | 0 mm | - | 414 W/m² | - |
| 1776952472 | 20° C | 74% | 1018.2 hPa | 0 mm | - | 411 W/m² | - |
| 1776952168 | 19.44° C | 76% | 1018.2 hPa | 0 mm | - | 402 W/m² | - |
| 1776951866 | 18.89° C | 75% | 1018.2 hPa | 0 mm | - | 365 W/m² | - |
| 1776951562 | 18.33° C | 79% | 1018.2 hPa | 0 mm | - | 191 W/m² | - |
| 1776951259 | 17.78° C | 81% | 1018.2 hPa | 0 mm | - | 308 W/m² | - |
| 1776950955 | 16.67° C | 84% | 1018.3 hPa | 0 mm | - | 44 W/m² | - |
| 1776950650 | 16.67° C | 90% | 1018.2 hPa | 0 mm | - | 91 W/m² | - |
| 1776950346 | 16.11° C | 92% | 1018.2 hPa | 0 mm | - | 94 W/m² | - |
| 1776950041 | 16.11° C | 93% | 1018.4 hPa | 0 mm | - | 75 W/m² | - |
| 1776949736 | 16.11° C | 93% | 1018.2 hPa | 0 mm | - | 43 W/m² | - |
| 1776949434 | 15.56° C | 93% | 1018.3 hPa | 0 mm | - | 51 W/m² | - |
| 1776949129 | 15.56° C | 93% | 1018.3 hPa | 0 mm | - | 45 W/m² | - |
| 1776948826 | 15.56° C | 93% | 1018.4 hPa | 0 mm | - | 37 W/m² | - |
| 1776948521 | 15° C | 93% | 1018 hPa | 0 mm | - | 32 W/m² | - |
| 1776948219 | 14.44° C | 94% | 1018.2 hPa | 0 mm | - | 74 W/m² | - |
| 1776947918 | 14.44° C | 96% | 1018.3 hPa | 0 mm | - | 35 W/m² | - |
| 1776947613 | 13.89° C | 97% | 1018.1 hPa | 0 mm | - | 31 W/m² | - |
| 1776947310 | 13.89° C | 97% | 1018.1 hPa | 0 mm | - | 27 W/m² | - |
| 1776947006 | 13.89° C | 97% | 1018.2 hPa | 0 mm | - | 25 W/m² | - |
| 1776946703 | 13.89° C | 98% | 1018.2 hPa | 0 mm | - | 24 W/m² | - |
| 1776946400 | 13.33° C | 98% | 1018.3 hPa | 0 mm | - | 22 W/m² | - |
* Rain latest hour (hover to see other rain measurements)
** Current wind speed in m/s (hover to see current wind gust speed)